This demonstration page uses our WeatherBlox Daily Observations layout. Learn more.

Left ArrowRight Arrow

Hourly Observations for July 15, 2020

Temp ( °F °C ) Dew Point ( °F °C ) Humidity (%) Winds ( mph kmh ) Pressure ( in mb ) Visibility ( mi km ) Precip ( " mm )
12:51 am 00:51 Mostly Clear 87 30.6 49 9.4 27 27 SSE 3 6 29.76 1008 10 16.0934 0 0
1:51 am 01:51 Mostly Clear 87 30.6 54 12.2 32 32 SE 13 20 29.77 1008 10 16.0934 0 0
2:51 am 02:51 Clear 84 28.9 56 13.3 38 38 E 14 22 29.79 1009 10 16.0934 0 0
3:51 am 03:51 Clear 83 28.3 56 13.3 40 40 E 17 28 29.8 1009 10 16.0934 0 0
4:51 am 04:51 Clear 82 27.8 56 13.3 41 41 E 13 20 29.8 1009 10 16.0934 0 0
5:51 am 05:51 Sunny 83 28.3 55 12.8 38 38 ESE 7 11 29.81 1010 10 16.0934 0 0
6:51 am 06:51 Sunny 85 29.4 56 13.3 37 37 E 10 17 29.82 1010 10 16.0934 0 0
7:51 am 07:51 Sunny 86 30 56 13.3 36 36 E 9 15 29.83 1010 10 16.0934 0 0
8:51 am 08:51 Sunny 89 31.7 55 12.8 31 31 Calm 29.82 1010 10 16.0934 0 0
9:51 am 09:51 Sunny 89 31.7 56 13.3 33 33 SW 5 7 29.83 1010 10 16.0934 0 0
10:51 am 10:51 Sunny 90 32.2 55 12.8 31 31 SW 7 11 29.83 1010 10 16.0934 0 0
11:51 am 11:51 Sunny 95 35 55 12.8 26 26 Calm 29.8 1009 10 16.0934 0 0
12:51 pm 12:51 Sunny 97 36.1 54 12.2 24 24 undefined N/A 29.77 1008 10 16.0934 0 0
1:51 pm 13:51 Sunny 100 37.8 52 11.1 20 20 WSW 12 19 29.73 1007 10 16.0934 0 0
2:51 pm 14:51 Sunny 100 37.8 50 10 18 18 W 10 17 29.72 1007 10 16.0934 0 0
3:51 pm 15:51 Sunny 98 36.7 49 9.4 19 19 WNW 15 24 29.72 1006 10 16.0934 0 0
4:51 pm 16:51 Sunny 94 34.4 53 11.7 25 25 NW 21 33 29.73 1007 10 16.0934 0 0
5:51 pm 17:51 Sunny 94 34.4 52 11.1 24 24 NNW 21 33 29.75 1007 10 16.0934 0 0
6:51 pm 18:51 Sunny 90 32.2 51 10.6 26 26 NW 10 17 29.76 1008 10 16.0934 0 0
7:51 pm 19:51 Clear 87 30.6 52 11.1 30 30 SSE 5 7 29.77 1008 10 16.0934 0 0
8:51 pm 20:51 Clear 87 30.6 53 11.7 31 31 ESE 5 7 29.78 1009 10 16.0934 0 0
9:51 pm 21:51 Mostly Cloudy 87 30.6 53 11.7 31 31 SSE 9 15 29.81 1009 10 16.0934 0 0
10:51 pm 22:51 Mostly Clear 85 29.4 54 12.2 35 35 SE 7 11 29.81 1009 10 16.0934 0 0
11:51 pm 23:51 Mostly Clear 84 28.9 55 12.8 37 37 E 13 20 29.8 1009 10 16.0934 0 0

Powered by AerisWeather